AirNav   Duncan Aviation - Near you to keep you flying
 
 1636 users online  

64CL Goodyear Blimp Base Airport
Carson, California, USA

GOING TO CARSON?


FAA INFORMATION EFFECTIVE 08 SEPTEMBER 2022

Location

FAA Identifier: 64CL
Lat/Long: 33-51-18.0000N 118-16-34.2000W
33-51.300000N 118-16.570000W
33.8550000,-118.2761667
(estimated)
Elevation: 21 ft. / 6 m (estimated)
Variation: 13E (2005)
From city: 1 mile SW of CARSON, CA
Time zone: UTC -7 (UTC -8 during Standard Time)
Zip code: 90746

Airport Operations

Airport use: Private use. Permission required prior to landing
Activation date: 01/1968
Control tower: no
ARTCC: LOS ANGELES CENTER
FSS: HAWTHORNE FLIGHT SERVICE STATION
NOTAMs facility: FDC (NOTAM-D service not available)
Attendance: IREG
Wind indicator: yes
Segmented circle: no

Airport Communications

WX AWOS-3PT at CPM (2.6 nm NE): 127.150 (310-631-3022)
WX ASOS at HHR (5 nm NW): PHONE 310-973-8930
WX ASOS at LGB (7 nm E): PHONE 562-424-0572
WX ASOS at LAX (8 nm NW): PHONE 310-568-1486
WX ASOS at SMO (13 nm NW): PHONE 310-392-6453
WX ASOS at FUL (15 nm E): PHONE 714-870-1372
WX AWOS-3PT at EMT (18 nm NE): 118.75 ((626) 444-1107)

Nearby radio navigation aids

VOR radial/distance  VOR name  Freq  Var
LAXr106/9.1LOS ANGELES VORTAC113.6015E
SLIr276/11.8SEAL BEACH VORTAC115.7015E
SMOr121/12.9SANTA MONICA VOR/DME110.8015E
VNYr139/24.6VAN NUYS VOR/DME113.1015E
POMr226/27.8POMONA VORTAC110.4015E
ELBr278/29.2EL TORO VOR/DME117.2014E
SXCr359/29.7SANTA CATALINA VORTAC114.1515E
PDZr249/37.4PARADISE VORTAC112.2015E

Airport Services

Fuel available: 100
Airframe service: MINOR
Powerplant service: MINOR

Runway Information

Helipad H1

Dimensions: 1200 x 900 ft. / 366 x 274 m
Surface: turf
COMPOSITE HARD SURFACE
Latitude: 33-51.300000N
Longitude: 118-16.570000W
Elevation: 21.0 ft.
Traffic pattern: leftleft

Airport Ownership and Management from official FAA records

Ownership: Privately-owned
Owner: GOODYEAR TR & RBR CO
200 INNOVATION WAY
AKRON, OH 44316-0001
Phone (330) 796-2121
Manager: MICHAEL DOUGHERTY
841 WINGFOOT LAKE RD
MOGADORE, OH 44260
Phone (330) 796-9090
OR CELL: 330-322-2513

Airport Operational Statistics

Aircraft based on the field: 1
Multi engine airplanes: 1
  • BLIMP
    

Additional Remarks

PLINES SW BOUNDARIES.
FOR CD CTC LOS ANGELES ARTCC AT 661-575-2079.

Instrument Procedures

There are no published instrument procedures at 64CL.

Some nearby airports with instrument procedures:

KTOA - Zamperini Field Airport (4 nm SW)
KHHR - Jack Northrop Field/Hawthorne Municipal Airport (5 nm NW)
KLGB - Long Beach Airport (Daugherty Field) (7 nm E)
KLAX - Los Angeles International Airport (8 nm NW)
KSLI - Los Alamitos Army Airfield (12 nm E)
KSMO - Santa Monica Municipal Airport (13 nm NW)
KFUL - Fullerton Municipal Airport (15 nm E)
KEMT - San Gabriel Valley Airport (18 nm NE)
 
Loc | Ops | Rwys | IFR | FBO | Links
Com | Nav | Svcs | Stats | Notes
Area around 64CL (Goodyear Blimp Base Airport)
 
Road maps at: MapQuest Bing Google
 
Aerial photo
WARNING: Photo may not be current or correct
Aerial photo of 64CL (Goodyear Blimp Base Airport)
Taken in September 2006

Do you have a better or more recent aerial photo of Goodyear Blimp Base Airport that you would like to share? If so, please send us your photo.

 
Sectional chart

 
Airport distance calculator
Flying to Goodyear Blimp Base Airport? Find the distance to fly.

From to 64CL

Sunrise and sunset
Times for 04-Oct-2022
 Local
(UTC-7)
 Zulu
(UTC)
Morning civil twilight06:2613:26
Sunrise06:5113:51
Sunset18:3301:33
Evening civil twilight18:5801:58

Current date and time
Zulu (UTC)  04-Oct-2022 21:23:21
Local (UTC-7)  04-Oct-2022 14:23:21
 
METAR
KHHR 
5nm NW 
042053Z 27009KT 10SM CLR 25/17 A2992 RMK AO2 SLP129 T02500172 58011 $
KTOA 
5nm SW 
042047Z 29010KT 10SM SKC 26/19 A2991
KLGB 
7nm E 
042053Z 19007KT 10SM CLR 25/17 A2991 RMK AO2 SLP129 T02500172 58013
KLAX 
7nm NW 
042053Z 27010KT 10SM FEW010 SCT025 24/18 A2992 RMK AO2 SLP130 T02390183 58010
KCQT 
12nm N 
042047Z AUTO VRB06KT 10SM CLR 26/17 A2992 RMK AO2 SLP128 T02560172 56011 $
KSMO 
13nm NW 
042051Z 22008KT 10SM FEW010 23/17 A2992 RMK AO2 SLP129 T02330172 58011
KSLI 
13nm SE 
042055Z 22008KT 9SM FEW040 26/18 A2988 RMK AO2A SLP121 T02560178 57013
KFUL 
15nm E 
042053Z 22006KT 10SM CLR 27/17 A2990 RMK AO2 SLP123 T02720172 56014
KEMT 
18nm NE 
042045Z 24007KT 10SM FEW090 30/15 A2990
TAF
KLGB 
7nm E 
041720Z 0418/0518 00000KT P6SM SKC FM042300 30008KT P6SM SKC FM050500 VRB03KT P6SM SKC FM051000 VRB03KT 3SM BR BKN004
KLAX 
7nm NW 
041720Z 0418/0524 32003KT P6SM SKC FM042000 26012KT P6SM SKC FM050300 26006KT P6SM SKC FM050600 08003KT P6SM SKC FM051000 VRB03KT 3SM BR BKN004 FM051700 26006KT P6SM SKC FM052000 26012KT P6SM SKC
KSMO 
13nm NW 
041720Z 0418/0518 00000KT P6SM SKC FM042000 23009KT P6SM SKC FM050300 VRB03KT P6SM SKC FM051000 VRB03KT 3SM BR BKN004
KSLI 
13nm SE 
041300Z 0413/0519 VRB06KT 8000 BR SKC QNH2984INS TX28/0500Z TN18/0414Z
NOTAMs
Click for the latest NOTAMs
NOTAMs are issued by the DoD/FAA and will open in a separate window not controlled by AirNav.

 

 
 

Would you like to see your business listed on this page?

 If your business provides an interesting product or service to pilots, flight crews, aircraft, or users of the Goodyear Blimp Base Airport, you should consider listing it here.  To start the listing process, click on the button below
 
Add a business
 

Other Pages about Goodyear Blimp Base Airport

Update a link
 
Copyright © AirNav, LLC. All rights reserved. Privacy Policy  Contact